Sanders, Before Seed, Beyond Harvest
OptiGro Location.

Weather

  • Currently

    Reported at
    UNKNOWN
  • N/AN/A
  • Fair
    Fair
  • Feels Like:N/AN/ADew Point:°F°CHumidity:N/A Winds: Calm Calm
    Pressure:Visibility:
Time Weather Temp Dew Point
Humidity Winds Visibility Pressure Precipitation
1 hr 24 hr
Friday, December 13
08:35 08:35 Cloudy With Fog Cloudy With Fog 46°F8°C 46°F8°C 100% SSE 5 mphSSE 7 kph 0.5 miles0.8 km 30 in1016 hPa 0.00 in0.00 mm --
08:15 08:15 Cloudy With Fog Cloudy With Fog 46°F8°C 46°F8°C 100% SE 5 mphSE 7 kph 0.2 miles0.4 km 30 in1016 hPa 0.00 in0.00 mm --
07:55 07:55 Cloudy With Mist And Fog Cloudy With Mist And Fog 46°F8°C 46°F8°C 100% SSE 5 mphSSE 7 kph 0.8 miles1.2 km 30.03 in1017 hPa 0.00 in0.00 mm --
07:35 07:35 Cloudy With Mist And Fog Cloudy With Mist And Fog 46°F8°C 46°F8°C 100% SSE 5 mphSSE 7 kph 0.8 miles1.2 km 30.03 in1017 hPa 0.00 in0.00 mm --
07:15 07:15 Cloudy With Mist And Fog Cloudy With Mist And Fog 46°F8°C 46°F8°C 100% SSE 6 mphSSE 9 kph 1.0 miles1.6 km 30.03 in1017 hPa 0.00 in0.00 mm --
06:55 06:55 Cloudy With Mist And Fog Cloudy With Mist And Fog 46°F8°C 46°F8°C 100% SSE 6 mphSSE 9 kph 1.2 miles2.0 km 30.03 in1017 hPa 0.00 in0.00 mm --
06:35 06:35 Cloudy With Mist And Fog Cloudy With Mist And Fog 46°F8°C 46°F8°C 100% SSE 6 mphSSE 9 kph 2.0 miles3.2 km 30.03 in1017 hPa 0.00 in0.00 mm --
06:15 06:15 Cloudy With Mist And Fog Cloudy With Mist And Fog 46°F8°C 46°F8°C 100% SE 5 mphSE 7 kph 4.0 miles6.4 km 30.03 in1017 hPa 0.00 in0.00 mm --
05:55 05:55 Cloudy With Mist And Fog Cloudy With Mist And Fog 46°F8°C 46°F8°C 100% SE 7 mphSE 11 kph 5.0 miles8.0 km 30.03 in1017 hPa 0.00 in0.00 mm --
05:35 05:35 Cloudy With Mist And Fog Cloudy With Mist And Fog 46°F8°C 46°F8°C 100% SE 7 mphSE 11 kph 5.0 miles8.0 km 30.03 in1017 hPa 0.00 in0.00 mm --
05:15 05:15 Cloudy Cloudy 46°F8°C 46°F8°C 100% SE 7 mphSE 11 kph 7.0 miles11.3 km 30.03 in1017 hPa 0.00 in0.00 mm --
04:55 04:55 Cloudy With Mist And Fog Cloudy With Mist And Fog 46°F8°C 46°F8°C 100% SSE 6 mphSSE 9 kph 5.0 miles8.0 km 30.06 in1018 hPa 0.00 in0.00 mm --
04:35 04:35 Cloudy Cloudy 46°F8°C 46°F8°C 100% SE 5 mphSE 7 kph 7.0 miles11.3 km 30.06 in1018 hPa 0.00 in0.00 mm --
04:15 04:15 Cloudy Cloudy 46°F8°C 46°F8°C 100% SE 7 mphSE 11 kph 7.0 miles11.3 km 30.06 in1018 hPa 0.00 in0.00 mm --
03:55 03:55 Cloudy Cloudy 46°F8°C 46°F8°C 100% SE 5 mphSE 7 kph 7.0 miles11.3 km 30.06 in1018 hPa 0.00 in0.00 mm --
03:35 03:35 Cloudy Cloudy 46°F8°C 46°F8°C 100% CalmCalm 7.0 miles11.3 km 30.06 in1018 hPa 0.00 in0.00 mm --
03:15 03:15 Cloudy Cloudy 46°F8°C 46°F8°C 100% SE 5 mphSE 7 kph 10.0 miles16.1 km 30.09 in1019 hPa 0.00 in0.00 mm --
02:55 02:55 Cloudy Cloudy 46°F8°C 46°F8°C 100% SE 5 mphSE 7 kph 10.0 miles16.1 km 30.09 in1019 hPa 0.00 in0.00 mm --
02:35 02:35 Cloudy Cloudy 46°F8°C 46°F8°C 100% SSE 5 mphSSE 7 kph 10.0 miles16.1 km 30.09 in1019 hPa 0.00 in0.00 mm --
02:15 02:15 Cloudy Cloudy 46°F8°C 46°F8°C 100% SE 6 mphSE 9 kph 10.0 miles16.1 km 30.09 in1019 hPa 0.00 in0.00 mm --
01:55 01:55 Cloudy Cloudy 46°F8°C 46°F8°C 100% SE 6 mphSE 9 kph 10.0 miles16.1 km 30.12 in1020 hPa 0.00 in0.00 mm --
01:35 01:35 Cloudy Cloudy 46°F8°C 46°F8°C 100% SSE 6 mphSSE 9 kph 10.0 miles16.1 km 30.12 in1020 hPa 0.00 in0.00 mm --
01:15 01:15 Cloudy Cloudy 46°F8°C 46°F8°C 100% SSE 8 mphSSE 13 kph 7.0 miles11.3 km 30.12 in1020 hPa 0.00 in0.00 mm --